This is the latest recevied weather packets stored in our database for station/object N5YHM-13. If no packets are shown the sender has not sent any weather packets the latest 10 day(s).
| Time | Temp. | Humidity | Pressure | Rain* | Wind** | Luminosity | Snow |
|---|---|---|---|---|---|---|---|
| 1777932224 | 23.89° C | 47% | 1017 hPa | 0 mm | - | 8 W/m² | - |
| 1777931922 | 23.89° C | 47% | 1017 hPa | 0 mm | - | 8 W/m² | - |
| 1777931617 | 23.89° C | 47% | 1016.9 hPa | 0 mm | - | 7 W/m² | - |
| 1777931314 | 23.89° C | 47% | 1016.8 hPa | 0 mm | - | 8 W/m² | - |
| 1777931011 | 23.89° C | 47% | 1016.9 hPa | 0 mm | - | 7 W/m² | - |
| 1777930707 | 23.89° C | 45% | 1017 hPa | 0 mm | - | 9 W/m² | - |
| 1777930403 | 24.44° C | 46% | 1016.9 hPa | 0 mm | - | 8 W/m² | - |
| 1777930101 | 24.44° C | 46% | 1016.9 hPa | 0 mm | - | 9 W/m² | - |
| 1777929797 | 24.44° C | 48% | 1017 hPa | 0 mm | - | 9 W/m² | - |
| 1777929495 | 23.89° C | 49% | 1017 hPa | 0 mm | - | 9 W/m² | - |
| 1777929191 | 23.89° C | 48% | 1017.3 hPa | 0 mm | - | 28 W/m² | - |
| 1777928888 | 24.44° C | 48% | 1017.1 hPa | 0 mm | - | 40 W/m² | - |
| 1777928585 | 24.44° C | 48% | 1017.1 hPa | 0 mm | - | 13 W/m² | - |
| 1777928283 | 24.44° C | 48% | 1017.3 hPa | 0 mm | - | 26 W/m² | - |
| 1777927980 | 24.44° C | 48% | 1016.9 hPa | 0 mm | - | 11 W/m² | - |
| 1777927678 | 24.44° C | 47% | 1017.3 hPa | 0 mm | - | 11 W/m² | - |
| 1777927376 | 24.44° C | 50% | 1017.3 hPa | 0 mm | - | 62 W/m² | - |
| 1777927075 | 24.44° C | 48% | 1017.3 hPa | 0 mm | - | 48 W/m² | - |
| 1777926773 | 24.44° C | 47% | 1017.2 hPa | 0 mm | - | 90 W/m² | - |
| 1777926472 | 24.44° C | 48% | 1017.6 hPa | 0 mm | - | 27 W/m² | - |
| 1777926170 | 24.44° C | 46% | 1017.3 hPa | 0 mm | - | 64 W/m² | - |
| 1777925867 | 24.44° C | 46% | 1017.6 hPa | 0 mm | - | 47 W/m² | - |
| 1777925564 | 24.44° C | 45% | 1017.6 hPa | 0 mm | - | 15 W/m² | - |
| 1777925262 | 24.44° C | 45% | 1017.9 hPa | 0 mm | - | 34 W/m² | - |
| 1777924957 | 24.44° C | 45% | 1018 hPa | 0 mm | - | 31 W/m² | - |
* Rain latest hour (hover to see other rain measurements)
** Current wind speed in m/s (hover to see current wind gust speed)